STARLINK-3189, 51464

Orbit data source: Space-Track

STARLINK-3189, 51464 is a payload satellite owned by SpaceX/Seattle (US) in LEO that was launched on Thu, 03 Feb 2022 UTC via an FALCON 9 launch vehicle from the Air Force Eastern Test Range (AFETR). Payload-class satellites include a variety of spacecraft equipped with specific instruments for various scientific and technological missions. These include communications satellites like Starlink; space stations such as the ISS; scientific satellites like the Hubble; Earth observation satellites from companies like Planet Labs, Umbra, and HawkEye 360; GPS; miniature CubeSats for education and research; and military/defense satellites.

Loading next visibility...
Identifier
51464, 2022-010J
Orbit
LEO
Country
Flag of USUS
Related business
Manufacturer
SpaceX/Seattle
Mission
Operational Commercial Communications
Bus & Motor
STARLINK, Unknown motor
Mass
297 kg wet, ~275 kg dry
Launch date (UTC)
2022-02-03 (4 years ago)
Launch vehicle
FALCON 9
Launch site
Air Force Eastern Test Range (AFETR)
Object type
Payload
Rocket body
Debris
Shape & HBR
Box + 1 Pan, 10.1 m
Radar Cross Section
13.562 m², Large (>1 m²)

Expand to show TLE details & history
Last TLE update: 2 days ago

TLE from 2 days ago
0 STARLINK-3189
1 51464U 22010J   26171.43097435 -.00001779  00000-0 -93730-4 0  9999
2 51464  53.1588 177.7829 0001862  73.1761 286.9435 15.08819290242834
Epoch: 2026-06-20T10:20Z
TLE epoch observation values (Epoch: 2026-06-20T10:20:36.183Z)
Latitude
-0°
Longitude
113.98644°
Altitude
540.323 km
Speed
7.594 km/s
True Right ascension
11h 51m 07s
True Declination
0° 00' 00"
Sunlit
Object was in daylight at epoch
Visualization orbit readout
Latitude
Unknown
Longitude
Unknown
Altitude
Unknown
Speed
Unknown
Apparent Right ascension
Unknown
Apparent Declination
Unknown
Sunlit
N/A
Visualization observer readout
Local Sidereal Time
21:40:02
Azimuth
Unknown
Elevation
Unknown
Doppler factor
Unknown
Orbital elements
Apogee altitude
541.349 km
Perigee altitude
538.773 km
Semi-major axis
6,918.198 km
Eccentricity
0.00019
Inclination
53.1588°
RAAN
177.7829°
Arg. of periapsis
73.1761°
True anomaly
286.92309°
Mean anomaly
286.9435°
Eccentric anomaly
286.93329°
Mean motion
3.77184 °/min
Orbital period
95.44 mins
BSTAR
-0.00009373
Loading maneuver chart data...
Computing Atmospheric mass density...

Documentation

Showing up to 5 results
|